Search flights

Hartsfield - Jackson Atlanta I Airport, Atlanta (KATL)

Airport Weather & NOTAM's

METAR for:KATL (Atlanta/Hartsfield-Jackson Intl, GA, US)
Text:KATL 140352Z 00000KT 10SM SCT080 29/19 A3017 RMK AO2 SLP204 T02940189
Conditions at:0352 UTC 14 Jul 2024
Temperature: 29.4°C ( 85°F)
Dewpoint: 18.9°C ( 66°F) [RH = 53%]
Pressure (altimeter):30.17 inches Hg (1021.8 mb) [Sea level pressure: 1020.4 mb]
Winds:calm
Visibility:10 or more sm (16+ km)
Ceiling:at least 12,000 feet AGL
Clouds:scattered clouds at 8000 feet AGL
TAF for:KATL (Atlanta/Hartsfield-Jackson Intl, GA, US) issued at 0146 UTC 14 Jul 2024
Text:KATL 140146Z 1402/1506 24004KT P6SM FEW080
Forecast period:0200 to 0600 UTC 14 July 2024
Forecast type:FROM: standard forecast or significant change
Winds:from the WSW (240 degrees) at 5 MPH (4 knots; 2.1 m/s)
Visibility:6 or more sm (10+ km)
Ceiling:at least 12,000 feet AGL
Clouds:few clouds at 8000 feet AGL
Text:FM140600 VRB03KT P6SM FEW080
Forecast period:0600 to 1400 UTC 14 July 2024
Forecast type:FROM: standard forecast or significant change
Winds:variable direction winds at 3 MPH (3 knots; 1.5 m/s)
Visibility:6 or more sm (10+ km)
Ceiling:at least 12,000 feet AGL
Clouds:few clouds at 8000 feet AGL
Text:FM141400 29006KT P6SM SCT070
Forecast period:1400 UTC 14 July 2024 to 0600 UTC 15 July 2024
Forecast type:FROM: standard forecast or significant change
Winds:from the WNW (290 degrees) at 7 MPH (6 knots; 3.1 m/s)
Visibility:6 or more sm (10+ km)
Ceiling:at least 12,000 feet AGL
Clouds:scattered clouds at 7000 feet AGL

Live Departures & Arrivals

There are currently no arrivals or departures for this airport.

Departures History (last 12 months)

Flight No. Dest. Aircraft Date
FX 021 KMEM DC10F 2023-12-17 00:00:00
FX 269 KMIA FEDEX-MD11... 2024-07-08 00:00:00
FX 021 KMEM FEDEX-B77F 2024-07-07 00:00:00
FX 269 KMIA FEDEX-MD11... 2024-06-22 00:00:00
FX509 KEWR FEDEX-B77F 2024-06-17 00:00:00
FX 269 KMIA FEDEX-MD11... 2024-06-16 00:00:00
FX533 KGSO FEDEX-MD11... 2024-06-11 00:00:00
TNT 138 KDFW TNT-B77F 2024-06-03 00:00:00
FX475 KAFW FEDEX-B77F 2024-05-30 00:00:00
FX 781 KMCO IF-LIVERY-... 2024-05-26 00:00:00
FX 269 KMIA FEDEX-MD11... 2024-05-20 00:00:00
FX 269 KMIA FEDEX-MD11... 2024-05-20 00:00:00
FX 269 KMIA FEDEX-B77F 2024-05-20 00:00:00
FX509 KEWR FEDEX-B77F 2024-05-20 00:00:00
FX CTR MMMX FEDEX-B77F 2024-05-18 00:00:00
FX 509 KEWR FEDEX-B77F 2024-05-19 00:00:00
FX 781 KMCO IF-LIVERY-... 2024-05-16 00:00:00
TNT 138 KDFW TNT-B77F 2024-05-15 00:00:00
FX 269 KMIA FEDEX-MD11... 2024-05-04 00:00:00
FX 269 KMIA FEDEX-B77F 2024-04-24 00:00:00
FX 509 KEWR FEDEX-B77F 2024-04-22 00:00:00
FX 269 KMIA FEDEX-B77F 2024-04-19 00:00:00
TK 015 LTFM TURKISH-B7... 2024-04-17 00:00:00
FX 269 KMIA FEDEX-B77F 2024-04-17 00:00:00
FX 269 KMIA FEDEX-B77F 2024-04-15 00:00:00
FX 350 KIND FEDEX-B77F 2024-04-11 00:00:00
TNT138 KDFW TNT-B77F 2024-04-11 00:00:00
FX 509 KEWR FEDEX-B77F 2024-04-08 00:00:00
FX 509 KEWR FEDEX-B77F 2024-04-05 00:00:00
FX 475 KAFW FEDEX-MD11... 2024-04-01 00:00:00
TNT 138 KDFW TNT-B77F 2024-03-23 00:00:00
FX 782 KONT FEDEX-MD11... 2024-03-20 00:00:00
FX 350 KIND FEDEX-B77F 2024-03-09 00:00:00
TK 015 LTFM TURKISH-B7... 2024-02-27 00:00:00
FX 021 KMEM FEDEX-B77F 2024-02-25 00:00:00
FX 478 KAFW FEDEX-B77F 2024-02-22 00:00:00
FX 478 KAFW IF-LIVERY-... 2024-02-20 00:00:00
FX 351 KIND FEDEX-B77F 2024-02-14 00:00:00
FX512 KEWR FEDEX-B77F 2024-02-09 00:00:00
TNT 128 EBLG TNT-B77F 2024-01-26 00:00:00
FX CTR OMDB FEDEX-B77F 2024-01-22 00:00:00
TNT 128 EBLG TNT-B77F 2024-01-19 00:00:00
TK 015 LTFM TURKISH-B7... 2024-01-15 00:00:00
FX 021 KMEM FEDEX-B77F 2024-01-15 00:00:00
FX270 KMIA FEDEX-B77F 2024-01-14 00:00:00
FX270 KMIA MD11F 2024-01-10 00:00:00
FX 512 KEWR B77F 2024-01-06 00:00:00
FX 021 KMEM MD11F 2024-01-01 00:00:00
FX 270 KMIA B77F 2023-12-30 00:00:00
FX 270 KMIA B77F 2023-12-28 00:00:00
FX ATC KATL IFATC 2023-12-28 00:00:00
TNT 138 KDFW TNT B77F 2023-12-26 00:00:00
FX 021 KMEM B77F 2023-12-16 00:00:00
FX1023 KIAH B752 2023-12-14 00:00:00
FX CTR MKJP MD11F 2023-12-06 00:00:00
FX ATC KATL IFATC 2023-12-03 00:00:00
FX 478 KAFW B752 2023-12-03 00:00:00
FX270 KMIA B77F 2023-12-03 00:00:00
FX 021 KMEM B77F 2023-11-30 00:00:00
FX 021 KMEM B77F 2023-11-24 00:00:00
TNT 138 KDFW TNT B77F 2023-11-24 00:00:00
FX CTR KDFW B77F 2023-11-19 00:00:00
FX ATC KATL IFATC 2023-11-18 00:00:00
FX270 KMIA MD11F 2023-11-10 00:00:00
FX ATC KATL IFATC 2023-11-11 00:00:00
FX 512 KEWR MD11F 2023-11-09 00:00:00
TNT138 KDFW TNT B77F 2023-10-31 00:00:00
FX ATC KATL IFATC 2023-11-05 00:00:00
FX ATC KATL IFATC 2023-11-01 00:00:00
FX ROTW KCLE B77F 2023-10-27 00:00:00
FX ROTW KCLE MD11F 2023-10-27 00:00:00
FX 270 KMIA B77F 2023-10-25 00:00:00
FX ATC KATL IFATC 2023-10-21 00:00:00
FX ATC KATL IFATC 2023-10-17 00:00:00
TNT 138 KDFW TNT B77F 2023-10-15 00:00:00
FX 021 KMEM MD11F 2023-10-14 00:00:00
FX CTR OMDB B77F 2023-10-05 00:00:00
FX817 KMCO B752 2023-10-04 00:00:00
FX ATC KATL IFATC 2023-10-05 00:00:00
TNT128 EBLG TNT B77F 2023-10-01 00:00:00
FX512 KEWR B77F 2023-10-01 00:00:00
FX CTR KJFK B77F 2023-10-01 00:00:00
FX 021 KMEM MD11F 2023-10-01 00:00:00
FX 021 KMEM B77F 2023-10-01 00:00:00
FX ATC KATL IFATC 2023-10-01 00:00:00
FX 270 KMIA MD11F 2023-10-01 00:00:00
FX ATC KATL IFATC 2023-09-29 00:00:00
FX 021 KMEM MD11F 2023-09-27 00:00:00
FX817 KMCO MD11F 2023-09-25 00:00:00
TK 015 LTFM TURKISH B7... 2023-09-25 00:00:00
FX ROTW KMCO B763 2023-09-20 00:00:00
FX CTR KMSY MD11F 2023-09-18 00:00:00
FX ATC KATL IFATC 2023-09-17 00:00:00
FX ATC KATL IFATC 2023-09-16 00:00:00
FX ATC KATL IFATC 2023-09-15 00:00:00
FX ATC KATL IFATC 2023-09-14 00:00:00
FX CTR KHOU B77F 2023-09-13 00:00:00
FX ATC KATL IFATC 2023-09-10 00:00:00
FX ATC KATL IFATC 2023-09-09 00:00:00
FX 021 KMEM MD11F 2023-09-09 00:00:00
FX ATC KATL IFATC 2023-09-08 00:00:00
FX 536 KGSO B77F 2023-09-07 00:00:00
FX CTR KRDU B77F 2023-09-04 00:00:00
FX CTR KSTL B77F 2023-09-04 00:00:00
FX 021 KMEM MD11F 2023-09-03 00:00:00
FX EVENT KTPA B77F 2023-09-02 00:00:00
FX EVENT KTPA B77F 2023-09-02 00:00:00
FX EVENT KTPA B77F 2023-09-02 00:00:00
FX EVENT KTPA MD11F 2023-09-02 00:00:00
FX EVENT KTPA B77F 2023-09-02 00:00:00
FX EVENT KTPA B77F 2023-09-02 00:00:00
FX EVENT KTPA B77F 2023-09-02 00:00:00
FX ATC KATL IFATC 2023-09-02 00:00:00
FX 270 KMIA B77F 2023-09-03 00:00:00
FX CTR KSAV C208 2023-08-21 00:00:00
FX 021 KMEM MD11F 2023-08-12 00:00:00
FX 021 KMEM FEDEX B77F 2023-01-08 00:00:00
FX WORLD 2 KMCO B752 2023-08-12 00:00:00
FX WORLD 2 KMCO B752 2023-08-09 00:00:00
FX 021 KMEM MD11F 2023-08-02 00:00:00
FX 478 KAFW B77F 2023-07-31 00:00:00
FX WORLD 2 KMCO B752 2023-07-28 00:00:00
FX 817 KMCO B752 2023-07-24 00:00:00
FX EVENT KJFK B77F 2023-07-21 00:00:00
FX EVENT KJFK B77F 2023-07-20 00:00:00
FX EVENT KJFK B77F 2023-07-20 00:00:00
FX EVENT KJFK B77F 2023-07-20 00:00:00
FX 478 KAFW B77F 2023-07-20 00:00:00

Arrivals History (last 12 months)

Flight No. Origin Aircraft Date
FX508 KEWR FEDEX-B77F 2024-07-06 00:00:00
FX 268 KMIA FEDEX-B77F 2024-06-29 00:00:00
FX268 KMIA FEDEX-B77F 2024-06-20 00:00:00
FX 268 KMIA FEDEX-B77F 2024-06-20 00:00:00
FX 268 KMIA FEDEX-MD11... 2024-06-20 00:00:00
FX 474 KAFW FEDEX-B77F 2024-06-17 00:00:00
FX268 KMIA FEDEX-MD11... 2024-06-11 00:00:00
FX 268 KMIA FEDEX-B77F 2024-06-07 00:00:00
FX 268 KMIA FEDEX-B77F 2024-06-07 00:00:00
FX 268 KMIA FEDEX-MD11... 2024-06-02 00:00:00
FX 268 KMIA FEDEX-MD11... 2024-06-01 00:00:00
FX508 KEWR FEDEX-B77F 2024-05-28 00:00:00
FX 508 KEWR FEDEX-B77F 2024-05-28 00:00:00
FX 508 KEWR FEDEX-B77F 2024-05-28 00:00:00
FX 268 KMIA FEDEX-B77F 2024-05-26 00:00:00
FX 268 KMIA FEDEX-MD11... 2024-05-26 00:00:00
FX474 KAFW FEDEX-B77F 2024-05-20 00:00:00
FX 1009 KJAX IF-LIVERY-... 2024-05-18 00:00:00
TNT 127 EBLG TNT-B77F 2024-05-15 00:00:00
FX 532 KGSO FEDEX-B77F 2024-05-14 00:00:00
FX 349 KIND FEDEX-B77F 2024-05-13 00:00:00
FX 268 KMIA FEDEX-B77F 2024-04-25 00:00:00
FX 268 KMIA FEDEX-B77F 2024-04-25 00:00:00
FX 268 KMIA FEDEX-B77F 2024-04-18 00:00:00
FX 268 KMIA FEDEX-B77F 2024-04-16 00:00:00
FX474 KAFW FEDEX-B77F 2024-04-14 00:00:00
FX 349 KIND FEDEX-B77F 2024-04-15 00:00:00
FNF 02 KAFW FEDEX-MD11... 2024-04-13 00:00:00
FNF 02 KAFW FEDEX-MD11... 2024-04-13 00:00:00
FNF 02 KAFW FEDEX-B77F 2024-04-13 00:00:00
FNF 02 KAFW FEDEX-MD11... 2024-04-13 00:00:00
FNF 02 KAFW FEDEX-B77F 2024-04-13 00:00:00
FX 508 KEWR FEDEX-B77F 2024-04-10 00:00:00
FX 268 KMIA FEDEX-MD11... 2024-04-10 00:00:00
FX 268 KMIA FEDEX-B77F 2024-04-10 00:00:00
FX 268 KMIA FEDEX-MD11... 2024-04-10 00:00:00
FX 474 KAFW FEDEX-B77F 2024-04-09 00:00:00
FX 268 KMIA GENERIC-B7... 2024-04-05 00:00:00
FX 268 KMIA FEDEX-MD11... 2024-04-03 00:00:00
FX 780 KMCO IF-LIVERY-... 2024-04-02 00:00:00
FX 268 KMIA FEDEX-MD11... 2024-03-31 00:00:00
FX 349 KIND FEDEX-B77F 2024-03-27 00:00:00
FX 508 KEWR IF-LIVERY-... 2024-03-11 00:00:00
FX 268 KMIA FEDEX-B77F 2024-03-08 00:00:00
FX 020 KMEM FEDEX-B77F 2024-03-08 00:00:00
FX 268 KMIA FEDEX-B77F 2024-03-03 00:00:00
TK 014 KORD TNT-B77F 2024-02-27 00:00:00
FX 269 KMIA FEDEX-B77F 2024-02-25 00:00:00
FX 020 KMEM FEDEX-B77F 2024-02-24 00:00:00
FX 020 KMEM FEDEX-B77F 2024-02-24 00:00:00
TNT 127 EBLG TNT-B77F 2024-02-20 00:00:00
FX 269 KMIA FEDEX-B77F 2024-02-17 00:00:00
FX 816 KMCO IF-LIVERY-... 2024-02-14 00:00:00
FX477 KAFW FEDEX-B77F 2024-02-07 00:00:00
FX 350 KIND FEDEX-B77F 2024-01-27 00:00:00
TK014 KORD FEDEX-B77F 2024-01-19 00:00:00
FX816 KMCO FEDEX-MD11... 2024-01-15 00:00:00
FX511 KEWR FEDEX-MD11... 2024-01-15 00:00:00
FX 511 KEWR FEDEX-B77F 2024-01-16 00:00:00
FX 020 KMEM FEDEX-B77F 2024-01-15 00:00:00
FX 477 KAFW FEDEX-B77F 2024-01-14 00:00:00
FX269 KMIA B77F 2024-01-11 00:00:00
KOAK KOAK B77F 2024-01-07 00:00:00
FX 477 KAFW B77F 2024-01-06 00:00:00
FX 269 KMIA B77F 2023-12-28 00:00:00
FX ATC KATL IFATC 2023-12-28 00:00:00
FX269 KMIA B77F 2023-12-18 00:00:00
FX 020 KMEM DC10F 2023-12-16 00:00:00
FX 511 KEWR B77F 2023-12-16 00:00:00
FX 269 KMIA B77F 2023-12-11 00:00:00
FX ATC KATL IFATC 2023-12-03 00:00:00
FX 1046 KJAX B752 2023-12-03 00:00:00
TNT 127 EBLG TNT B77F 2023-11-28 00:00:00
FX 350 KIND B77F 2023-11-24 00:00:00
FX 269 KMIA B77F 2023-11-22 00:00:00
FX 020 KMEM MD11F 2023-11-19 00:00:00
FX ATC KATL IFATC 2023-11-18 00:00:00
FX 269 KMIA MD11F 2023-11-17 00:00:00
FX ATC KATL IFATC 2023-11-11 00:00:00
FX 020 KMEM MD11F 2023-11-10 00:00:00
FX 477 KAFW B77F 2023-11-08 00:00:00
FX 477 KAFW B77F 2023-11-08 00:00:00
FX ATC KATL IFATC 2023-11-05 00:00:00
FX ATC KATL IFATC 2023-11-01 00:00:00
FX 269 KMIA B77F 2023-10-27 00:00:00
FX 816 KMCO B752 2023-10-22 00:00:00
FX ATC KATL IFATC 2023-10-21 00:00:00
FX ATC KATL IFATC 2023-10-17 00:00:00
FX 020 KMEM MD11F 2023-10-07 00:00:00
FX020 KMEM MD11F 2023-10-04 00:00:00
FX ATC KATL IFATC 2023-10-05 00:00:00
FX 020 KMEM MD11F 2023-10-01 00:00:00
FX ATC KATL IFATC 2023-10-01 00:00:00
FX ATC KATL IFATC 2023-09-29 00:00:00
FX 020 KMEM B77F 2023-09-25 00:00:00
FX 020 KMEM B77F 2023-09-24 00:00:00
FX 020 KMEM B77F 2023-09-21 00:00:00
FX ATC KATL IFATC 2023-09-17 00:00:00
FX ATC KATL IFATC 2023-09-16 00:00:00
FX 269 KMIA B77F 2023-09-16 00:00:00
FX ATC KATL IFATC 2023-09-15 00:00:00
FX ATC KATL IFATC 2023-09-14 00:00:00
FX CTR KCLT DC10F 2023-09-10 00:00:00
FX ATC KATL IFATC 2023-09-10 00:00:00
FX ROTW KORD TURKISH B7... 2023-09-10 00:00:00
FX ATC KATL IFATC 2023-09-09 00:00:00
FX ATC KATL IFATC 2023-09-08 00:00:00
FX 269 KMIA B77F 2023-09-04 00:00:00
TNT127 EBLG TNT B77F 2023-09-02 00:00:00
FX CTR EDDF B77F 2023-09-02 00:00:00
FX ATC KATL IFATC 2023-09-02 00:00:00
FX 819 KONT MD11F 2023-09-03 00:00:00
TNT 127 EBLG TNT B77F 2023-09-02 00:00:00
FX 269 KMIA B77F 2023-09-02 00:00:00
FX 269 KMIA B77F 2023-09-02 00:00:00
FX 020 KMEM MD11F 2023-09-01 00:00:00
FX 269 KMIA B77F 2023-09-01 00:00:00
FX 350 KIND B77F 2023-08-29 00:00:00
FX 269 KMIA B77F 2023-08-29 00:00:00
FX 020 KMEM B77F 2023-08-27 00:00:00
FX 020 KMEM MD11F 2023-08-27 00:00:00
FX CTR MMMX DC10F 2023-08-20 00:00:00
FX 020 KMEM MD11F 2023-08-16 00:00:00
FX 816 KMCO B752 2023-08-14 00:00:00
FX WORLD 1 KMEM B738 2023-08-11 00:00:00
FX WORLD 1 KMEM B738 2023-08-09 00:00:00
FX 020 KMEM B77F 2023-08-04 00:00:00
FX 020 KMEM MD11F 2023-08-02 00:00:00
FX 350 KIND B77F 2023-07-31 00:00:00
FX WORLD 1 KMEM B738 2023-07-28 00:00:00
FX 1065 KRDU B763 2023-07-28 00:00:00
FX ROTW KONT DC10F 2023-07-25 00:00:00
FX CTR KFTY C208 2023-07-20 00:00:00
FX 020 KMEM B77F 2023-07-20 00:00:00
FX 511 KEWR B77F 2023-07-19 00:00:00
FX 269 KMIA B77F 2023-07-19 00:00:00
FX 269 KMIA MD11F 2023-07-19 00:00:00
FX 511 KEWR B77F 2023-07-19 00:00:00
FX 535 KGSO MD11F 2023-07-16 00:00:00
FX 020 KMEM B77F 2023-07-16 00:00:00

Runway Information (Airport elevation: 999ft)

Runway 08L Length 9,000ft Width 150ft Elevation 1,003ft Surface Asphalt Heading 90
Runway 08R Length 9,999ft Width 150ft Elevation 1,003ft Surface Asphalt Heading 90
Runway 09L Length 12,389ft Width 150ft Elevation 1,003ft Surface Asphalt Heading 90
Runway 09R Length 9,000ft Width 150ft Elevation 1,003ft Surface Asphalt Heading 90
Runway 10 Length 9,000ft Width 150ft Elevation 1,003ft Surface Asphalt Heading 90
Runway 26L Length 9,999ft Width 150ft Elevation 1,003ft Surface Asphalt Heading 270
Runway 26R Length 9,000ft Width 150ft Elevation 1,003ft Surface Asphalt Heading 270
Runway 27L Length 9,000ft Width 150ft Elevation 1,003ft Surface Asphalt Heading 270
Runway 27R Length 12,389ft Width 150ft Elevation 1,003ft Surface Asphalt Heading 270
Runway 28 Length 9,000ft Width 150ft Elevation 1,003ft Surface Asphalt Heading 270

Airport Frequencies

Type APP/DEP Frequency 127.900 Mhz
Type APP/DEP Frequency 128.000 Mhz
Type ATIS Frequency 119.650 Mhz
Type ATIS Frequency 122.550 Mhz
Type Clearance Frequency 118.100 Mhz
Type D Frequency 121.225 Mhz
Type D Frequency 125.650 Mhz
Type D Frequency 133.475 Mhz
Type Ground Frequency 121.650 Mhz
Type Ground Frequency 121.750 Mhz
Type Ground Frequency 121.900 Mhz
Type Ground Frequency 128.970 Mhz
Type Ground Frequency 129.270 Mhz
Type Ground Frequency 129.370 Mhz
Type Ground Frequency 130.775 Mhz
Type Ground Frequency 131.250 Mhz
Type Ground Frequency 131.370 Mhz
Type Ground Frequency 131.450 Mhz
Type Ground Frequency 131.850 Mhz
Type Ground Frequency 131.870 Mhz
Type Tower Frequency 119.100 Mhz
Type Tower Frequency 119.300 Mhz
Type Tower Frequency 119.500 Mhz
Type Tower Frequency 123.850 Mhz
Type Tower Frequency 125.325 Mhz
Type UC Frequency 122.950 Mhz
Type APP/DEP Frequency 124.600 Mhz
Type APP/DEP Frequency 127.250 Mhz
Type APP/DEP Frequency 135.375 Mhz
Type ATIS Frequency 125.550 Mhz
Type Ground Frequency 128.975 Mhz
Type Ground Frequency 129.250 Mhz
Type Ground Frequency 129.275 Mhz
Type Ground Frequency 129.375 Mhz
Type Ground Frequency 129.400 Mhz
Type Ground Frequency 130.075 Mhz
Type Ground Frequency 130.775 Mhz
Type Ground Frequency 131.375 Mhz
Type Ground Frequency 131.450 Mhz
Type Ground Frequency 131.850 Mhz
Type Ground Frequency 131.875 Mhz
Type Tower Frequency 126.900 Mhz
Type Tower Frequency 132.550 Mhz
Type Tower Frequency 133.425 Mhz
Type UC Frequency 122.950 Mhz

Airport Navaids

Type NDB Ident AT Frequency 375 Khz
Type VORTAC Ident ATL Frequency 116900 Khz
Type NDB Ident BR Frequency 266 Khz